RH
14 14 20 20 22 27 32 32 28 23 19 16 13 11 10 10 12 18 29 35 33 32 37 42 45 45 46 45 46 46 46 45 44 41 39 37 35 34 33 31 26 21 21
14 15 20 19 22 28 33 33 30 26 22 19 17 16 14 12 12 14 23 33 36 34 36 43 48 49 50 50 50 50 51 50 50 49 47 43 41 39 38 36 32 29 25
16 16 21 22 22 27 32 34 32 30 26 24 26 27 24 22 18 15 17 28 37 37 35 39 45 50 52 53 53 53 52 53 53 53 53 49 43 41 41 40 36 33 31
19 19 23 26 26 31 34 35 35 33 32 32 33 34 31 25 20 19 18 26 35 41 38 37 42 48 52 55 55 55 54 54 55 57 57 51 41 40 40 39 38 35 35
23 24 28 32 31 32 36 38 38 37 36 36 38 40 40 37 34 31 26 23 30 39 43 40 40 44 49 53 54 54 54 55 57 60 59 45 45 53 53 52 51 49 48
30 29 29 34 35 34 35 38 41 41 40 39 41 44 45 43 41 38 31 28 30 38 44 46 43 42 44 48 51 52 54 56 60 63 57 48 60 57 54 54 54 52 50
30 28 29 35 39 40 42 43 44 44 43 41 43 46 46 44 42 39 33 31 35 43 50 50 49 46 46 47 49 52 56 61 65 66 48 63 64 59 55 54 51 47 42
29 26 27 30 38 44 47 47 48 47 46 43 45 47 45 43 42 39 36 34 37 43 50 53 53 52 52 52 54 57 62 66 70 63 51 66 63 60 53 44 36 32 27
30 29 31 33 40 45 48 52 53 51 48 47 48 46 44 43 43 41 38 36 37 44 52 57 60 59 59 61 63 67 70 74 70 49 68 68 63 60 50 41 33 30 26
36 37 42 44 46 47 48 48 54 56 52 48 46 44 44 45 46 45 43 41 44 53 62 65 67 68 69 70 73 78 80 76 62 46 74 73 65 58 48 39 35 31 26
47 52 55 57 61 64 64 62 59 54 49 46 46 46 46 48 49 50 51 49 51 67 73 74 74 77 80 84 84 83 78 63 52 61 79 79 68 57 47 41 37 34 30
65 65 66 65 60 52 50 52 63 67 69 70 65 54 50 51 52 52 56 64 78 76 82 94 84 89 96 97 95 90 63 63 69 75 88 82 67 52 43 38 35 32 32
63 61 54 45 34 33 29 29 30 34 42 51 57 64 73 88 92 86 88 93 95 96 95 95 94 95 95 96 96 94 92 94 97 98 94 76 56 44 39 35 33 32 28
39 25 20 23 24 25 26 28 36 56 67 79 79 75 73 72 80 90 95 94 95 96 96 96 94 96 97 94 95 95 96 96 96 96 78 56 47 40 37 35 29 23 18
35 26 19 14 10 9 9 12 25 42 63 65 78 90 91 92 94 97 97 96 96 97 95 95 97 98 97 98 96 94 97 97 95 90 74 62 54 43 32 24 18 14 12
25 17 10 7 6 6 9 16 24 26 28 48 82 99 98 99 97 97 97 97 97 97 97 96 96 96 97 97 96 98 95 97 95 80 49 40 34 24 17 15 13 12 11
31 18 11 11 10 9 8 8 28 46 47 59 73 94 99 99 98 99 99 97 96 97 96 96 97 97 96 96 97 97 95 95 90 57 26 19 16 14 13 13 14 16 17
29 18 20 17 14 12 11 11 12 30 46 51 76 99 100 98 96 97 97 97 97 96 96 96 96 96 96 97 94 88 59 29 19 16 16 16 15 16 19 21 22 23 23
45 37 27 21 18 16 15 14 13 20 38 62 83 100 99 99 97 97 98 97 97 97 97 96 96 96 90 61 36 26 19 18 18 18 19 21 23 25 26 28 25 24 25
25 25 25 24 23 20 18 17 17 31 45 87 99 100 98 99 99 97 96 98 98 96 95 95 95 91 66 42 24 21 22 25 25 26 28 30 32 33 34 32 30 29 30
29 26 26 26 27 25 23 23 33 56 94 99 99 99 98 98 98 98 97 96 95 94 95 92 83 64 51 36 29 30 34 35 37 38 40 42 40 40 38 34 29 28 30
30 27 24 26 29 29 28 33 61 90 100 99 98 98 98 97 98 97 96 95 93 92 73 47 38 34 33 34 35 38 42 45 46 47 47 45 38 32 32 34 35 35 34
43 39 34 30 29 33 34 46 91 99 100 98 98 98 97 97 97 96 96 94 50 40 38 37 38 39 43 46 46 46 46 46 47 41 35 32 34 40 44 48 48 48 47
34 38 38 36 39 43 62 90 100 100 100 100 99 98 98 97 96 91 54 39 36 34 35 40 46 50 51 49 48 46 41 34 32 33 33 38 32 19 11 11 11 12 16
53 58 59 70 83 100 100 100 100 99 99 99 98 97 97 96 74 39 30 24 25 30 39 42 41 41 39 37 34 32 31 28 27 16 11 10 12 13 16 18 20 20 18
41 55 73 92 95 98 98 98 99 99 99 98 97 98 97 92 40 27 21 19 26 39 40 38 38 36 36 33 28 20 16 12 10 10 14 23 30 33 34 34 34 31 27
Wind_Speed
12 12 13 12 12 11 12 13 14 13 12 12 12 13 14 15 15 15 16 17 18 18 18 17 16 15 13 12 11 10 10 10 10 10 10 10 10 10 10 10 11 12 12
14 14 13 12 11 11 12 13 14 13 13 14 15 15 16 16 17 17 17 18 19 20 20 19 18 17 16 15 14 13 12 12 12 12 13 13 12 13 13 12 12 12 13
14 14 15 13 13 12 12 14 14 14 16 17 17 16 15 15 15 16 17 19 20 21 22 22 21 20 19 18 17 16 15 15 14 15 15 15 14 13 14 14 13 12 13
13 14 15 15 13 13 15 17 17 17 18 18 17 15 15 16 17 19 20 21 22 22 23 23 23 23 22 21 20 19 18 18 17 17 17 17 15 13 11 12 12 12 12
15 15 16 17 17 17 17 19 19 19 20 19 18 18 19 20 22 21 21 22 22 23 24 24 25 25 24 24 23 22 21 20 19 19 18 16 13 13 13 13 12 12 12
12 13 16 17 17 18 19 20 20 21 22 21 20 19 21 22 21 20 21 22 23 24 24 25 26 26 26 25 25 24 23 22 21 20 19 15 14 15 14 14 13 12 11
12 11 9 13 16 17 18 19 21 22 23 23 22 22 22 22 21 22 24 25 25 25 25 26 26 27 27 26 26 25 24 23 23 21 19 17 17 16 15 13 12 12 11
14 14 13 13 15 17 18 19 20 22 23 24 24 25 24 23 22 24 25 26 26 27 27 27 27 27 27 27 27 27 26 25 24 22 20 19 19 17 16 15 15 14 13
16 13 12 13 14 16 17 19 20 22 23 24 25 25 24 24 23 24 25 27 27 27 27 28 28 27 28 28 28 27 27 27 26 23 22 22 20 19 19 19 18 17 17
10 11 9 11 13 15 16 17 18 20 22 24 25 25 25 25 25 26 26 26 27 27 28 28 28 28 29 29 28 28 28 28 27 26 25 23 22 21 21 21 21 21 21
8 7 7 8 9 10 11 13 15 17 20 22 23 24 26 26 27 27 26 26 28 28 28 29 30 29 29 31 30 29 28 28 27 27 27 26 25 24 23 23 24 25 25
13 16 19 21 24 26 25 24 22 20 18 19 20 23 26 27 28 28 26 26 28 32 30 32 34 33 34 32 32 30 28 27 28 30 29 27 27 26 25 25 26 27 28
27 32 36 38 38 38 35 30 29 28 27 26 27 28 29 29 31 32 34 34 34 36 34 34 35 36 36 35 31 31 32 33 31 30 29 28 27 27 27 28 29 30 31
39 37 33 31 30 28 27 27 26 25 26 28 30 31 32 34 35 37 37 36 35 36 38 38 39 39 36 33 32 32 32 30 30 28 27 27 27 28 29 29 31 32 33
21 23 25 26 27 28 29 29 29 29 28 27 27 30 31 32 35 38 38 39 39 39 41 39 40 37 35 35 34 35 34 31 27 26 27 28 28 30 30 32 32 32 32
23 21 21 21 23 25 25 24 25 28 31 29 29 29 31 32 34 36 37 38 40 40 38 39 37 35 36 34 34 34 31 27 25 24 26 28 30 30 31 32 32 31 31
22 21 20 23 25 27 28 28 27 25 25 25 28 30 31 31 31 33 35 37 37 38 40 40 39 41 38 34 32 29 26 24 24 27 29 29 31 31 31 30 30 29 30
27 26 28 31 31 29 29 30 31 31 31 29 27 27 29 31 31 33 34 35 36 37 37 37 35 32 28 25 23 20 22 25 28 28 28 28 29 29 28 28 28 28 29
26 31 35 36 33 30 29 29 30 30 31 31 31 29 29 29 30 30 29 29 29 30 31 30 25 20 16 17 21 24 26 27 27 28 28 27 27 27 28 27 27 28 28
34 35 36 37 36 32 30 29 29 29 29 28 27 26 24 23 24 26 27 30 31 28 20 15 14 17 20 23 25 27 28 27 27 26 26 26 26 26 26 27 27 26 26
36 36 35 36 35 31 29 28 27 26 24 23 22 23 23 25 27 29 32 27 19 16 16 18 22 25 27 29 29 28 27 27 26 26 25 25 25 25 25 25 25 24 24
37 38 38 38 36 33 30 26 24 22 23 23 24 26 28 30 31 30 24 19 17 19 24 26 28 28 28 28 28 27 26 26 25 24 24 23 22 22 22 21 21 22 22
40 40 40 40 37 33 30 26 22 22 25 26 28 30 30 30 29 24 19 21 25 26 26 28 28 28 27 26 26 26 26 25 23 21 20 19 19 19 18 17 18 19 19
36 35 35 33 30 28 26 24 22 26 28 30 32 31 29 26 21 20 24 27 26 26 26 26 25 25 25 24 24 24 22 20 20 20 18 16 14 11 9 9 11 13 16
28 26 27 26 22 21 24 26 29 31 32 32 33 31 26 23 24 26 26 27 27 26 26 24 24 23 22 22 22 21 21 20 18 14 12 9 8 8 10 11 12 13 14
25 25 24 24 22 22 23 27 30 32 32 29 28 29 26 25 28 27 26 25 25 25 23 23 22 22 22 23 22 21 19 18 17 16 13 11 11 11 12 13 15 16 17
Wind_Direction
282 261 247 251 249 235 229 231 232 230 230 230 229 232 235 237 239 238 237 237 237 237 237 238 238 241 244 248 256 265 275 283 287 292 293 295 294 290 283 275 269 267 267
279 265 251 250 247 233 226 229 230 228 226 226 226 228 230 235 237 237 237 238 239 239 240 241 242 244 247 250 256 263 271 280 289 294 296 297 295 291 287 280 273 269 266
271 261 253 248 244 237 231 229 228 225 226 228 231 234 238 242 243 241 240 240 240 240 242 243 245 247 250 253 257 263 269 275 282 289 295 297 294 289 283 278 274 270 267
267 260 256 246 242 233 229 229 229 226 227 231 233 232 228 229 232 233 233 235 238 239 241 243 246 248 251 255 259 263 268 274 280 286 292 295 292 286 281 276 275 272 269
264 264 253 242 234 231 229 231 231 228 231 233 234 234 232 232 233 234 235 235 237 239 241 243 246 248 250 254 258 263 267 272 278 282 287 286 281 281 282 279 273 270 268
260 264 253 247 243 239 237 237 237 234 235 236 237 238 241 243 243 242 239 237 235 236 239 242 246 249 251 254 257 261 265 269 274 279 283 275 274 278 277 271 269 268 271
260 269 268 252 250 250 245 243 241 239 240 240 239 242 243 247 247 242 238 235 236 236 238 241 245 248 251 254 258 261 263 267 272 278 274 272 277 275 267 258 259 264 269
261 269 272 261 253 250 247 245 245 244 244 245 245 246 246 248 245 243 244 242 239 238 237 239 242 247 251 252 256 260 264 267 271 271 268 274 275 268 257 255 256 261 268
270 263 254 254 252 248 248 247 246 245 246 246 247 250 250 251 250 246 247 247 246 246 246 245 245 247 251 255 257 258 263 267 269 265 266 271 269 261 258 259 259 262 269
257 259 260 261 257 256 254 249 249 251 251 250 251 250 248 248 247 246 247 248 246 245 245 249 250 251 252 253 255 259 262 266 266 265 268 268 263 258 259 261 265 269 275
261 269 265 265 276 281 277 272 264 256 254 255 257 257 256 253 252 250 247 245 246 242 245 246 247 246 250 253 255 259 262 263 265 268 268 266 262 260 260 264 269 274 280
275 279 281 282 285 290 287 278 272 269 264 265 266 261 259 259 256 257 255 252 250 249 241 242 243 243 248 250 251 256 258 262 268 269 264 260 260 261 264 267 271 275 279
286 290 290 289 289 288 285 278 273 268 266 266 264 259 255 257 255 252 249 248 249 246 249 247 245 254 252 250 250 248 258 268 265 258 255 256 258 261 264 269 274 279 283
289 286 284 284 284 283 282 280 276 269 259 252 251 253 255 254 251 250 254 253 252 248 250 245 248 263 260 255 253 261 267 257 249 249 252 255 259 263 267 273 278 282 285
276 280 282 283 284 283 280 279 276 272 267 264 260 256 255 255 252 255 259 255 251 250 250 254 262 258 252 250 259 264 254 243 243 247 252 257 261 266 272 276 279 282 284
290 290 290 292 293 291 287 282 277 273 270 264 259 257 256 257 257 257 260 260 257 255 255 256 253 247 241 252 258 249 240 240 245 251 256 260 265 270 274 277 279 280 281
285 287 290 295 292 289 287 287 284 281 278 271 263 257 256 252 253 254 254 253 252 251 249 246 244 237 242 246 239 237 239 242 248 253 258 263 267 270 273 275 276 277 279
281 274 283 290 291 282 278 276 275 274 273 272 268 261 256 252 251 250 250 247 246 246 245 243 240 235 227 228 236 244 251 253 255 258 262 266 268 270 270 270 272 273 277
275 281 288 290 293 289 283 276 272 267 265 264 261 256 252 249 247 244 242 241 236 229 222 220 219 223 231 239 244 250 254 257 260 263 264 264 265 266 268 270 272 273 276
289 291 294 295 293 289 284 279 273 266 265 262 254 247 238 234 231 228 221 214 216 221 220 227 236 242 245 248 251 253 254 256 258 259 260 261 262 264 267 269 270 272 274
295 295 295 295 292 288 281 274 269 265 260 251 239 229 225 223 221 221 222 224 221 225 234 240 243 244 247 249 251 252 254 255 257 258 259 261 262 264 265 267 270 273 275
294 292 290 290 288 285 280 271 264 258 250 238 229 227 225 226 228 225 218 218 226 235 239 242 246 249 250 251 253 253 253 254 256 256 258 259 260 262 264 269 273 276 279
291 289 288 286 286 282 272 264 258 253 246 236 232 229 231 228 225 221 220 231 235 238 241 244 245 247 248 249 250 251 252 251 252 252 253 256 257 259 264 267 273 278 282
290 288 286 283 279 272 260 251 247 248 239 233 233 235 232 232 234 237 239 239 237 239 240 242 242 244 246 247 247 247 247 246 247 246 245 243 246 255 265 280 290 294 294
291 290 289 281 266 261 255 249 249 241 231 232 238 234 235 237 242 242 243 243 241 238 236 236 238 240 241 239 239 240 242 240 234 222 210 213 234 258 279 289 295 300 304
291 291 289 275 268 266 261 253 246 236 230 243 250 244 234 237 242 245 244 241 238 235 234 234 236 236 236 237 236 231 224 215 211 210 216 232 252 262 272 281 288 293 296